Starlink 35110

operational
NORAD ID: 65539 Int'l Des: 2025-200 Owner: SPXS Country: US Constellation: starlink
LEOCIRCULARRETROGRADE

About Starlink 35110

Description loading...

Live Position

Loading 3D Globe...

Upcoming Passes

Altitude History

Altitude vs Time

uPlot chart will show altitude changes over time

Two-Line Element Set

1 65539U 25200V 25304.14245644 .00047885 00000-0 12206-2 0 9996
2 65539 97.6048 11.8811 0001772 76.0286 284.1156 15.39385422 9626
Epoch: Oct 31, 2025 • Age: 13 hours

Current Status

Altitude 456.8 km
Velocity 7.64 km/s
Sub-Earth Point 59.75°N, 76.64°E
Launch Date Sep 6, 2025
Age 0.1 years
Type internet

Technical Details

Classification Payload
Mass 575.00 kg
Dry Mass 530.00 kg
Total Mass 575.00 kg
Length 0.30 m
Diameter 4.10 m
Span 29.00 m
Shape Box + pan
Manufacturer SPXS
Bus Type Starlink V2MO
Phase Status In Orbit
Owner/State SPXS/US

Large Constellations

Loading constellations...